OneWeb SL0269

operational
NORAD ID: 48987 Int'l Des: 2021-060 Owner: ONEWEBN Country: UK Constellation: oneweb
LEOCIRCULARPOLARONEWEB_TYPE

关于 OneWeb SL0269

正在加载描述...

实时位置

正在加载3D地球...

即将过境

高度历史

Altitude vs Time

uPlot chart will show altitude changes over time

两行轨道根数

1 48987U 21060W 25351.76134392 .00000064 00000-0 13487-3 0 9992
2 48987 87.9037 264.9276 0001725 81.8191 278.3136 13.16592707215752
Epoch: Dec 17, 2025 • Age: 14 hours

当前状态

高度 1205.0 km
速度 7.25 km/s
星下点 -18.38°S, 45.33°E
发射日期 Jul 1, 2021
运行时间 4.4 years
类型 internet

技术详情

分类 Payload
质量 148.00 kg
干质量 140.00 kg
总质量 148.00 kg
长度 1.30 m
直径 1.00 m
跨度 5.00 m
形状 Trapezoid+2 pan
制造商 ONEWUS
平台类型 ARROW
阶段状态 In Orbit
所有者/国家 ONEWEBN/UK

大型星座

Loading constellations...